Weather Roundup
Issued by NWS

Home | Current Version | Previous Version | Text Only | Print | Product List | Glossary On
Versions: 1 2 3 4 5 6 7 8 9 10 11 12 13 14 15 16 17 18 19 20 21 22 23 24 25 26 27 28 29 30 31 32 33 34 35 36 37 38 39 40 41 42 43 44 45 46 47 48 49 50
000
NZUS93 KARX 211710
HRRWXR

CURRENT HOURLY OBSERVATIONS ACROSS
MUCH OF THE UPPER MISSISSIPPI VALLEY
NATIONAL WEATHER SERVICE LA CROSSE WI
1200 PM CDT SAT OCT 21 2017


...SOUTHEAST MINNESOTA...


CITY           SKY/WX    TMP DP  RH WIND       PRES   REMARKS
ROCHESTER      CLOUDY    63  58  83 S23G33    29.78F
ROCHESTER/MAYO CLOUDY    63  58  85 SE15G30   29.78F
WINONA         PTSUNNY   70  57  64 S10G21    29.82R
AUSTIN         CLOUDY    61  57  88 S13G23    29.76F FOG
ALBERT LEA     NOT AVBL
DODGE CENTER   CLOUDY    63  57  82 S26G32    29.75F
PRESTON        CLOUDY    62  56  80 S18       29.82R
OWATONNA       PTSUNNY   63  61  94 S21G26    29.72S
FARIBAULT      CLOUDY    63  61  94 S18G25    29.70F
$$

...ELSEWHERE IN MINNESOTA...


CITY           SKY/WX    TMP DP  RH WIND       PRES   REMARKS
MINNEAPOLIS    CLOUDY    63  60  90 S17G25    29.68F
INTNL FALLS    CLOUDY    65  54  67 S8G18     29.54F
DULUTH         LGT RAIN  57  57 100 S15       29.68F
RED WING       CLOUDY    64  55  72 S16G22    29.72F
REDWOOD FALLS  CLOUDY    70  60  70 S24G31    29.57S
MANKATO        NOT AVBL
WORTHINGTON    CLOUDY    66  61  84 S10G21    29.61S
FAIRMONT       CLOUDY    63  61  94 S22G28    29.66S
$$

...SOUTHWEST WISCONSIN...


CITY           SKY/WX    TMP DP  RH WIND       PRES   REMARKS
LA CROSSE      CLOUDY    67  56  67 S16G26    29.83S
PRAIRIE DU CHI PTSUNNY   70  54  55 S5        29.86F
BOSCOBEL       SUNNY     74  55  51 S9G18     29.87F
LONE ROCK      SUNNY     73  58  59 S14G21    29.89F
PLATTEVILLE    MOSUNNY   72  57  58 S18       29.91F
FORT MC COY    CLOUDY    67  56  67 S15G25    29.85F
CAMP DOUGLAS   PTSUNNY   70  55  60 S15G22    29.86F
MAUSTON-NEW LI MOSUNNY   72  56  58 S15G24    29.86F
VIROQUA        CLOUDY    65  57  73 S13G18    29.87F
WIS DELLS      SUNNY     69  53  57 S20G26    29.90F
$$

...ELSEWHERE IN WISCONSIN...


CITY           SKY/WX    TMP DP  RH WIND       PRES   REMARKS
MILWAUKEE      CLOUDY    70  54  56 S13       30.01F
MADISON        MOSUNNY   69  55  60 S13       29.94F
GREEN BAY      SUNNY     70  52  52 S18G26    29.95F
EAU CLAIRE     CLOUDY    62  58  86 S10       29.80R
BLACK RVR FLS  CLOUDY    69  53  56 S14G23    29.83F
MEDFORD        CLOUDY    62  54  73 S13G21    29.85R
WAUSAU         PTSUNNY   65  56  72 S12       29.85F
WIS RAPIDS     PTSUNNY   69  58  67 SW13      29.87F
MARSHFIELD     CLOUDY    65  54  67 S15G30    29.84F
RICE LAKE      LGT RAIN  59  56  92 SE17G24   29.77S
$$

...NORTHEAST IOWA...


CITY           SKY/WX    TMP DP  RH WIND       PRES   REMARKS
WATERLOO       CLOUDY    67  56  67 S15G25    29.82R
DUBUQUE        SUNNY     71  56  58 S25       29.90F
DECORAH        CLOUDY    66  57  72 S14G21    29.83F
MASON CITY     CLOUDY    63  59  87 S15       29.78S
CHARLES CITY   CLOUDY    64  59  82 S16G24    29.80F
OELWEIN        PTSUNNY   70  59  68 S18G26    29.83F
$$

...ELSEWHERE IN IOWA...


CITY           SKY/WX    TMP DP  RH WIND       PRES   REMARKS
DES MOINES     CLOUDY    68  59  73 S18G28    29.79R
IOWA CITY      LGT RAIN  75  58  55 S23G31    29.88F
FORT DODGE     CLOUDY    65  60  84 S13G22    29.73R
MARSHALLTOWN   CLOUDY    69  58  67 S20       29.80R
CEDAR RAPIDS   SUNNY     73  57  57 S23G32    29.84F
$$

...NORTHERN ILLINOIS...


CITY           SKY/WX    TMP DP  RH WIND       PRES   REMARKS
CHICAGO-OHARE  PTSUNNY   72  54  53 S16G26    30.05F
CHICAGO-MIDWAY PTSUNNY   72  54  53 S14       30.06F
MOLINE         SUNNY     75  56  51 S18G26    29.92F
ROCKFORD       MOSUNNY   73  55  53 S17G28    30.00F
PEORIA         MOSUNNY   72  57  59 S17G29    30.03S
$$

NOTE: "FAIR" INDICATES FEW OR NO CLOUDS BELOW 12,000 FEET WITH NO
SIGNIFICANT WEATHER AND/OR OBSTRUCTIONS TO VISIBILITY. WIND
SPEEDS ARE IN MILES-PER-HOUR.




USA.gov is the U.S. government's official web portal to all federal, state and local government web resources and services.